Regional Weather Roundup
Issued by NWS

Home | Current Version | Previous Version | Graphics & Text | Print | Product List | Glossary On
Versions: 1 2 3 4 5 6 7 8 9 10 11 12 13 14 15 16 17 18 19 20 21 22 23 24 25 26 27 28 29 30 31 32 33 34 35 36 37 38 39 40 41 42 43 44 45 46 47 48 49 50
000
ASUS43 KDMX 010907
RWRIA

WEATHER ROUNDUP FOR IOWA
NATIONAL WEATHER SERVICE DES MOINES IA
400 AM CDT WED OCT 01 2014

NOTE: "FAIR" INDICATES FEW OR NO CLOUDS BELOW 12,000 FEET WITH NO
SIGNIFICANT WEATHER AND/OR OBSTRUCTIONS TO VISIBILITY.

* - THESE STATIONS ARE NOT NWS STATIONS...THUS NOT UNDER NWS
QUALITY CONTROL.  THEY ALSO DO NOT REPORT WEATHER SUCH
AS PRECIPITATION OR FOG.

IAZ001>003-012>014-020>022-031>034-043>046-011000-
   NORTHWEST IOWA

CITY           SKY/WX    TMP DP  RH WIND       PRES   REMARKS
CARROLL *      RAIN      59  59 100 E9        29.77F
CHEROKEE *     RAIN      61  61 100 S10       29.72F
DENISON *      MOCLDY    61  61 100 E12       29.72F
LE MARS *        N/A     61  61 100 SE7       29.73F
ORANGE CITY *  CLOUDY    63  57  82 SE7       29.73F FOG
SHELDON *      CLOUDY    61  59  94 SE10G20   29.72F
SIOUX CITY     CLOUDY    63  61  93 SE3       29.72F FOG
SPENCER        CLOUDY    58  56  93 SE10      29.77F
STORM LAKE *   CLOUDY    59  59 100 SE9G15    29.75F FOG
$$

IAZ055>058-069>071-079>083-090>094-011000-
   SOUTHWEST IOWA

CITY           SKY/WX    TMP DP  RH WIND       PRES   REMARKS
ATLANTIC *     RAIN      63  63 100 CALM      29.75R
AUDUBON *      HVY RAIN  61  55  82 N5        29.78S
CLARINDA *     CLOUDY    66  64  94 S8G18     29.76S
COUNCIL BLFS * CLOUDY    61  61 100 VRB7G14   29.70F
CRESTON *      CLOUDY    63  63 100 SE14G20   29.76F FOG
HARLAN  *      CLOUDY    63  63 100 VRB3      29.77F FOG
LAMONI         CLOUDY    63  61  93 E6        29.79F
RED OAK *      LGT RAIN  63  61  94 CALM      29.75F
SHENANDOAH *   RAIN      63  61  94 CALM      29.75F
$$

IAZ047>049-059>061-072>074-084-011000-
   CENTRAL IOWA

CITY           SKY/WX    TMP DP  RH WIND       PRES   REMARKS
AMES           RAIN      57  57 100 SE8       29.82F FOG
ANKENY *       LGT RAIN  59  59 100 E7        29.82F
CHARITON *     CLOUDY    63  57  82 SE10      29.82S
DES MOINES     RAIN      62  59  90 E8        29.81F FOG
GRINNELL*      CLOUDY    55  50  82 E12       29.86S
KNOXVILLE *    CLOUDY    59  55  88 SE10G17   29.81F
MARSHALLTOWN   CLOUDY    55  49  80 E14       29.84F
PELLA *        CLOUDY    57  54  88 SE12      29.85S
PERRY *        RAIN      59  59 100 SE9G16    29.77F
$$

IAZ004>006-015-016-023>025-035-036-011000-
   NORTH CENTRAL IOWA

CITY           SKY/WX    TMP DP  RH WIND       PRES   REMARKS
ALGONA *       LGT RAIN  55  54  94 SE14G21   29.81S
CLARION *      CLOUDY    54  52  94 SE12      29.83F
ESTHERVILLE    CLOUDY    56  54  93 SE14      29.78F
FORT DODGE *   CLOUDY    55  52  88 SE8       29.81F
MASON CITY     LGT RAIN  51  50  96 SE9       29.89R
FOREST CITY *  RAIN      52  52 100 SE15G21   29.85S
IOWA FALLS *   CLOUDY    54  50  87 SE6       29.87R
$$

IAZ007>011-017>019-026>030-037>042-050>054-066-011000-
   NORTHEAST IOWA

CITY           SKY/WX    TMP DP  RH WIND       PRES   REMARKS
CHARLES CITY * CLOUDY    52  46  82 SE13G21   29.89R
CLINTON *      CLEAR     50  45  81 E9        29.98R
DECORAH *      CLOUDY    48  45  87 SE9G16    29.91F
MONTICELLO *   CLOUDY    52  48  87 E14       29.93S
OELWEIN *      CLOUDY    52  46  82 SE15G24   29.91R
WATERLOO       CLOUDY    53  47  79 SE10      29.87F
$$

IAZ064-065-067-068-078-011000-
   EAST CENTRAL IOWA

CITY           SKY/WX    TMP DP  RH WIND       PRES   REMARKS
IOWA CITY      CLOUDY    52  49  89 E9        29.92S
MT. PLEASANT * CLEAR     54  48  82 E10       29.89F
MUSCATINE *    CLOUDY    54  48  82 SE8       29.92S
$$

IAZ062-063-075>077-085>089-095>099-011000-
   SOUTHEAST IOWA

CITY           SKY/WX    TMP DP  RH WIND       PRES   REMARKS
BURLINGTON     PTCLDY    53  50  89 SE13      29.90S
FAIRFIELD *    MOCLDY    54  50  87 E9        29.88S
FORT MADISON * CLEAR     55  52  88 E10       29.90S HAZE
KEOKUK *       CLEAR     55  52  88 E10G16    29.88S
OSKALOOSA *      N/A     55  52  88 SE9       29.86F
CENTERVILLE *  CLEAR     59  57  94 E7        29.84S
OTTUMWA        MOCLDY    55  51  86 SE9       29.86S
WASHINGTON *   CLEAR     54  50  87 E12       29.89S
$$

ABBREVIATIONS USED IN REMARKS
   TC - TEMPERATURES IN CELSIUS
  WCI - WIND CHILL INDEX
   HX - HEAT INDEX
  VSB - VISIBILITY
$$



USA.gov is the U.S. government's official web portal to all federal, state and local government web resources and services.